Location: Cella
(44.7333°N, 10.5667°E)
Time: 11:56:50
(UTC+00:00)

COSMOS 1867 COOLANT - Pass Details

Date: 28 September 2021
Orbit: 770 x 802 km, 65.0° (Epoch: 15 October)

Event Time Altitude Azimuth Distance (km) Brightness Sun altitude
Rises 17:59:31 0° 330° (NNW) 3,321 ? -10.7°
Reaches altitude 10° 18:02:40 10° 347° (NNW) 2,387 ? -11.3°
Maximum altitude 18:06:34 19° 33° (NNE) 1,821 ? -12.0°
Enters shadow 18:09:32 13° 70° (ENE) 2,163 ? -12.5°
